• In France
  • List of Countries
  • For 7 days
  • Water Temperature
  • Satellite Maps
  • Weather Map
  • Weather Widgets
  • user-avatar
    Login

    Hourly Weather San Miguel de Tucumán

    Today, 24 September, Monday

    Time Temperature Precipitation Wind Pressure Humidity
    00:00 +27°C° 4.2 mm 2 mps 717 mmHg 74%
    01:00 +26°C° 4.2 mm 2 mps 718 mmHg 80%
    02:00 +25°C° 0 mm 2 mps 718 mmHg 87%
    03:00 +25°C° 2 mm 2 mps 718 mmHg 87%
    04:00 +24°C° 2 mm 3 mps 718 mmHg 88%
    05:00 +24°C° 2 mm 3 mps 719 mmHg 89%
    06:00 +22°C° 0.1 mm 3 mps 719 mmHg 87%
    07:00 +22°C° 0.1 mm 3 mps 720 mmHg 84%
    08:00 +24°C° 0 mm 3 mps 720 mmHg 82%
    09:00 +24°C° 0 mm 3 mps 720 mmHg 77%
    10:00 +25°C° 0 mm 3 mps 720 mmHg 73%
    11:00 +25°C° 0 mm 3 mps 720 mmHg 68%
    12:00 +26°C° 0 mm 3 mps 720 mmHg 64%
    13:00 +27°C° 0 mm 3 mps 719 mmHg 59%
    14:00 +28°C° 0 mm 3 mps 719 mmHg 55%
    15:00 +27°C° 0 mm 3 mps 718 mmHg 56%
    16:00 +27°C° 0 mm 2 mps 718 mmHg 56%
    17:00 +26°C° 0 mm 2 mps 718 mmHg 57%
    18:00 +26°C° 0 mm 1 mps 718 mmHg 61%
    19:00 +25°C° 0 mm 1 mps 718 mmHg 64%
    20:00 +24°C° 0 mm 1 mps 719 mmHg 68%
    21:00 +23°C° 0 mm 1 mps 719 mmHg 70%
    22:00 +22°C° 0 mm 1 mps 719 mmHg 72%
    23:00 +22°C° 0 mm 1 mps 720 mmHg 74%

    Tomorrow, 25 September, Tuesday

    Time Temperature Precipitation Wind Pressure Humidity
    00:00 +21°C° 0 mm 1 mps 719 mmHg 76%
    01:00 +21°C° 0 mm 1 mps 719 mmHg 78%
    02:00 +20°C° 0 mm 1 mps 718 mmHg 80%
    03:00 +20°C° 0 mm 1 mps 718 mmHg 81%
    04:00 +19°C° 0 mm 2 mps 718 mmHg 82%
    05:00 +19°C° 0 mm 2 mps 718 mmHg 84%
    06:00 +19°C° 0 mm 2 mps 718 mmHg 81%
    07:00 +20°C° 0 mm 2 mps 718 mmHg 79%
    08:00 +22°C° 0 mm 1 mps 719 mmHg 76%
    09:00 +23°C° 0 mm 2 mps 719 mmHg 70%
    10:00 +25°C° 0 mm 2 mps 718 mmHg 64%
    11:00 +27°C° 0 mm 2 mps 718 mmHg 57%
    12:00 +28°C° 0 mm 2 mps 718 mmHg 54%
    13:00 +29°C° 0 mm 2 mps 717 mmHg 51%
    14:00 +30°C° 0 mm 2 mps 716 mmHg 49%
    15:00 +29°C° 0 mm 2 mps 716 mmHg 50%
    16:00 +29°C° 0 mm 2 mps 715 mmHg 52%
    17:00 +29°C° 0 mm 2 mps 715 mmHg 53%
    18:00 +27°C° 0 mm 2 mps 716 mmHg 60%
    19:00 +26°C° 0 mm 1 mps 716 mmHg 67%
    20:00 +24°C° 0 mm 1 mps 716 mmHg 74%
    21:00 +24°C° 0 mm 1 mps 717 mmHg 76%
    22:00 +23°C° 0 mm 1 mps 717 mmHg 79%
    23:00 +23°C° 0 mm 1 mps 717 mmHg 81%

    Day after tomorrow, 26 September, Wednesday

    Time Temperature Precipitation Wind Pressure Humidity
    00:00 +23°C° 0 mm 1 mps 717 mmHg 82%
    01:00 +22°C° 0 mm 1 mps 717 mmHg 84%
    02:00 +22°C° 0 mm 1 mps 717 mmHg 85%
    03:00 +22°C° 0.1 mm 1 mps 716 mmHg 84%
    04:00 +22°C° 0.1 mm 1 mps 716 mmHg 83%
    05:00 +22°C° 0.1 mm 1 mps 716 mmHg 81%
    06:00 +22°C° 0.1 mm 1 mps 717 mmHg 79%
    07:00 +23°C° 0.1 mm 1 mps 717 mmHg 77%
    08:00 +24°C° 0.1 mm 2 mps 718 mmHg 75%
    09:00 +24°C° 0.1 mm 2 mps 718 mmHg 75%
    10:00 +25°C° 0.1 mm 2 mps 718 mmHg 74%
    11:00 +25°C° 0.1 mm 2 mps 718 mmHg 74%
    12:00 +26°C° 0 mm 2 mps 717 mmHg 71%
    13:00 +27°C° 0 mm 2 mps 717 mmHg 68%
    14:00 +27°C° 0 mm 2 mps 716 mmHg 66%
    15:00 +27°C° 0.1 mm 2 mps 716 mmHg 69%
    16:00 +26°C° 0.1 mm 2 mps 715 mmHg 72%
    17:00 +25°C° 0.1 mm 2 mps 715 mmHg 75%
    18:00 +25°C° 0.1 mm 2 mps 716 mmHg 79%
    19:00 +24°C° 0.1 mm 1 mps 716 mmHg 82%
    20:00 +23°C° 0.1 mm 1 mps 717 mmHg 86%
    21:00 +23°C° 0.2 mm 1 mps 718 mmHg 87%
    22:00 +23°C° 0.2 mm 1 mps 718 mmHg 88%
    23:00 +23°C° 0.2 mm 1 mps 719 mmHg 89%

    27 September, Thursday

    Time Temperature Precipitation Wind Pressure Humidity
    00:00 +22°C° 0.1 mm 1 mps 718 mmHg 90%
    01:00 +22°C° 0.1 mm 1 mps 718 mmHg 90%
    02:00 +22°C° 0.1 mm 1 mps 718 mmHg 91%
    03:00 +22°C° 0.1 mm 1 mps 717 mmHg 91%
    04:00 +22°C° 0.1 mm 1 mps 717 mmHg 90%
    05:00 +21°C° 0.1 mm 1 mps 717 mmHg 90%
    06:00 +22°C° 0.1 mm 1 mps 718 mmHg 87%
    07:00 +23°C° 0.1 mm 1 mps 718 mmHg 85%
    08:00 +23°C° 0.1 mm 1 mps 719 mmHg 82%
    09:00 +25°C° 0 mm 2 mps 719 mmHg 76%
    10:00 +26°C° 0 mm 2 mps 719 mmHg 70%
    11:00 +27°C° 0 mm 2 mps 719 mmHg 64%
    12:00 +28°C° 0.1 mm 2 mps 718 mmHg 62%
    13:00 +29°C° 0.1 mm 2 mps 717 mmHg 60%
    14:00 +29°C° 0.1 mm 2 mps 717 mmHg 58%
    15:00 +29°C° 0.1 mm 2 mps 717 mmHg 61%
    16:00 +28°C° 0.1 mm 2 mps 716 mmHg 64%
    17:00 +27°C° 0.1 mm 1 mps 716 mmHg 67%
    18:00 +26°C° 0.1 mm 1 mps 717 mmHg 72%
    19:00 +26°C° 0.1 mm 1 mps 718 mmHg 76%
    20:00 +25°C° 0.1 mm 1 mps 718 mmHg 81%
    21:00 +24°C° 0.1 mm 1 mps 719 mmHg 81%
    22:00 +24°C° 0.1 mm 1 mps 719 mmHg 82%
    23:00 +24°C° 0.1 mm 1 mps 719 mmHg 83%

    28 September, Friday

    Time Temperature Precipitation Wind Pressure Humidity
    00:00 +22°C° 0.1 mm 0 mps 719 mmHg 84%
    01:00 +21°C° 0.1 mm 0 mps 718 mmHg 86%
    02:00 +21°C° 0.1 mm 0 mps 718 mmHg 87%
    03:00 +21°C° 0.1 mm 0 mps 718 mmHg 87%
    04:00 +21°C° 0.1 mm 0 mps 718 mmHg 88%
    05:00 +23°C° 0.1 mm 1 mps 718 mmHg 88%
    06:00 +23°C° 0.2 mm 1 mps 718 mmHg 86%
    07:00 +24°C° 0.2 mm 1 mps 719 mmHg 83%
    08:00 +25°C° 0.2 mm 1 mps 720 mmHg 81%
    09:00 +26°C° 0.2 mm 2 mps 719 mmHg 77%
    10:00 +27°C° 0.2 mm 2 mps 719 mmHg 73%
    11:00 +28°C° 0.2 mm 2 mps 719 mmHg 69%
    12:00 +29°C° 0.1 mm 3 mps 718 mmHg 65%
    13:00 +30°C° 0.1 mm 3 mps 717 mmHg 61%
    14:00 +31°C° 0.1 mm 3 mps 716 mmHg 57%
    15:00 +30°C° 0.1 mm 3 mps 716 mmHg 58%
    16:00 +30°C° 0.1 mm 3 mps 715 mmHg 58%
    17:00 +30°C° 0.1 mm 3 mps 715 mmHg 59%
    18:00 +29°C° 0 mm 2 mps 715 mmHg 64%
    19:00 +28°C° 0 mm 2 mps 715 mmHg 68%
    20:00 +26°C° 0 mm 2 mps 715 mmHg 73%
    21:00 +26°C° 0 mm 2 mps 715 mmHg 73%
    22:00 +26°C° 0 mm 2 mps 715 mmHg 74%
    23:00 +25°C° 0 mm 2 mps 714 mmHg 74%

    29 September, Saturday

    Time Temperature Precipitation Wind Pressure Humidity
    00:00 +25°C° 0 mm 2 mps 714 mmHg 72%
    01:00 +25°C° 0 mm 2 mps 714 mmHg 71%
    02:00 +25°C° 0 mm 2 mps 713 mmHg 69%
    03:00 +25°C° 0 mm 2 mps 713 mmHg 67%
    04:00 +24°C° 0 mm 2 mps 713 mmHg 66%
    05:00 +24°C° 0 mm 2 mps 713 mmHg 64%
    06:00 +25°C° 0 mm 2 mps 713 mmHg 60%
    07:00 +27°C° 0 mm 2 mps 714 mmHg 56%
    08:00 +28°C° 0 mm 2 mps 714 mmHg 52%
    09:00 +30°C° 0 mm 2 mps 714 mmHg 47%
    10:00 +34°C° 0 mm 2 mps 713 mmHg 42%
    11:00 +36°C° 0 mm 2 mps 713 mmHg 37%
    12:00 +37°C° 0 mm 2 mps 712 mmHg 34%
    13:00 +38°C° 0 mm 2 mps 712 mmHg 31%
    14:00 +40°C° 0 mm 2 mps 711 mmHg 28%
    15:00 +39°C° 0 mm 2 mps 711 mmHg 30%
    16:00 +39°C° 0 mm 2 mps 710 mmHg 33%
    17:00 +38°C° 0 mm 2 mps 710 mmHg 35%
    18:00 +36°C° 0 mm 2 mps 710 mmHg 41%
    19:00 +34°C° 0 mm 2 mps 711 mmHg 46%
    20:00 +30°C° 0 mm 1 mps 712 mmHg 52%
    21:00 +30°C° 0 mm 1 mps 712 mmHg 52%
    22:00 +29°C° 0 mm 1 mps 712 mmHg 52%
    23:00 +29°C° 0 mm 2 mps 712 mmHg 53%
    Show more